Time,TemperatureF,DewpointF,PressureIn,WindDirection,WindDirectionDegrees,WindSpeedMPH,WindSpeedGustMPH,Humidity,HourlyPrecipIn,Conditions,Clouds,dailyrainin,SoftwareType,DateUTC
2013-01-31 00:01:00,13.2,7.9,30.00,NW,323,1.8,2.3,79,0.00,CLR,SKC,0.00,WeatherDisplay:10.37,2013-01-31 06:01:00,
2013-01-31 00:06:00,13.0,8.0,30.00,NW,308,0.7,1.1,80,0.00,CLR,SKC,0.00,WeatherDisplay:10.37,2013-01-31 06:06:00,
2013-01-31 00:11:00,12.8,7.8,30.01,NW,326,1.2,3.5,80,0.00,CLR,SKC,0.00,WeatherDisplay:10.37,2013-01-31 06:11:00,
2013-01-31 00:16:00,12.7,7.7,30.01,WSW,257,2.6,3.5,80,0.00,CLR,SKC,0.00,WeatherDisplay:10.37,2013-01-31 06:16:00,
2013-01-31 00:21:00,12.6,7.6,30.01,NW,314,1.2,2.3,80,0.00,CLR,SKC,0.00,WeatherDisplay:10.37,2013-01-31 06:21:00,
2013-01-31 00:26:00,12.5,7.5,30.01,NW,322,1.6,3.0,80,0.00,CLR,SKC,0.00,WeatherDisplay:10.37,2013-01-31 06:26:00,
2013-01-31 00:31:00,12.3,7.3,30.01,NW,308,1.4,4.6,80,0.00,CLR,SKC,0.00,WeatherDisplay:10.37,2013-01-31 06:31:00,
2013-01-31 00:36:00,12.1,7.4,30.01,NW,307,2.7,3.5,81,0.00,CLR,SKC,0.00,WeatherDisplay:10.37,2013-01-31 06:36:00,
2013-01-31 00:41:00,12.0,7.3,30.01,West,277,0.7,2.3,81,0.00,CLR,SKC,0.00,WeatherDisplay:10.37,2013-01-31 06:41:00,
2013-01-31 00:47:00,11.9,7.2,30.02,WNW,295,0.6,2.3,81,0.00,CLR,SKC,0.00,WeatherDisplay:10.37,2013-01-31 06:47:00,
2013-01-31 00:52:00,11.9,7.2,30.01,NW,316,0.4,1.1,81,0.00,CLR,SKC,0.00,WeatherDisplay:10.37,2013-01-31 06:52:00,
2013-01-31 00:57:00,11.8,7.1,30.01,NW,323,3.7,6.9,81,0.00,CLR,SKC,0.00,WeatherDisplay:10.37,2013-01-31 06:57:00,
2013-01-31 01:02:00,11.7,7.0,30.02,NW,304,0.8,3.5,81,0.00,CLR,SKC,0.00,WeatherDisplay:10.37,2013-01-31 07:02:00,
2013-01-31 01:07:00,11.7,7.0,30.02,NW,317,1.6,3.5,81,0.00,CLR,SKC,0.00,WeatherDisplay:10.37,2013-01-31 07:07:00,
2013-01-31 01:12:00,11.6,6.9,30.01,WNW,302,2.2,3.5,81,0.00,CLR,SKC,0.00,WeatherDisplay:10.37,2013-01-31 07:12:00,
2013-01-31 01:17:00,11.5,6.8,30.02,WNW,298,2.0,2.3,81,0.00,CLR,SKC,0.00,WeatherDisplay:10.37,2013-01-31 07:17:00,
2013-01-31 01:22:00,11.4,7.0,30.02,NNW,334,2.9,3.5,82,0.00,CLR,SKC,0.00,WeatherDisplay:10.37,2013-01-31 07:22:00,
2013-01-31 01:27:00,11.4,7.0,30.02,NW,319,1.6,3.5,82,0.00,CLR,SKC,0.00,WeatherDisplay:10.37,2013-01-31 07:27:00,
2013-01-31 01:32:00,11.3,6.9,30.02,NNW,328,2.1,3.5,82,0.00,CLR,SKC,0.00,WeatherDisplay:10.37,2013-01-31 07:32:00,
2013-01-31 01:37:00,11.3,6.9,30.02,North,1,5.0,6.9,82,0.00,CLR,SKC,0.00,WeatherDisplay:10.37,2013-01-31 07:37:00,
2013-01-31 01:42:00,11.2,6.5,30.02,NW,325,2.6,4.0,81,0.00,CLR,SKC,0.00,WeatherDisplay:10.37,2013-01-31 07:42:00,
2013-01-31 01:47:00,11.1,6.4,30.03,NW,316,2.2,3.5,81,0.00,CLR,SKC,0.00,WeatherDisplay:10.37,2013-01-31 07:47:00,
2013-01-31 01:52:00,11.0,6.3,30.03,WNW,294,3.5,5.8,81,0.00,CLR,SKC,0.00,WeatherDisplay:10.37,2013-01-31 07:52:00,
2013-01-31 01:57:00,10.9,6.2,30.03,WNW,300,3.9,6.0,81,0.00,CLR,SKC,0.00,WeatherDisplay:10.37,2013-01-31 07:57:00,
2013-01-31 02:02:00,10.7,6.0,30.03,NW,319,1.9,3.5,81,0.00,CLR,SKC,0.00,WeatherDisplay:10.37,2013-01-31 08:02:00,
2013-01-31 02:07:00,10.6,5.9,30.03,NNW,331,2.9,4.0,81,0.00,CLR,SKC,0.00,WeatherDisplay:10.37,2013-01-31 08:07:00,
2013-01-31 02:12:00,10.5,5.8,30.03,NW,323,4.3,6.0,81,0.00,CLR,SKC,0.00,WeatherDisplay:10.37,2013-01-31 08:12:00,
2013-01-31 02:17:00,10.4,5.7,30.04,NW,322,6.0,8.1,81,0.00,CLR,SKC,0.00,WeatherDisplay:10.37,2013-01-31 08:17:00,
2013-01-31 02:22:00,10.2,5.8,30.05,NNW,338,4.1,5.0,82,0.00,SCT,SKC,0.00,WeatherDisplay:10.37,2013-01-31 08:22:00,
2013-01-31 02:27:00,10.0,5.6,30.05,NNW,335,3.4,4.0,82,0.00,SCT,SKC,0.00,WeatherDisplay:10.37,2013-01-31 08:27:00,
2013-01-31 02:32:00,9.8,5.4,30.05,WNW,297,2.7,3.5,82,0.00,SCT,SKC,0.00,WeatherDisplay:10.37,2013-01-31 08:32:00,
2013-01-31 02:37:00,9.5,5.1,30.05,NW,316,2.0,5.8,82,0.00,SCT,SKC,0.00,WeatherDisplay:10.37,2013-01-31 08:37:00,
2013-01-31 02:42:00,9.4,4.7,30.05,NW,314,4.2,10.4,81,0.00,SCT,SKC,0.00,WeatherDisplay:10.37,2013-01-31 08:42:00,
2013-01-31 02:47:00,9.3,4.4,30.05,NW,323,5.1,6.9,80,0.00,SCT,SKC,0.00,WeatherDisplay:10.37,2013-01-31 08:47:00,
2013-01-31 02:52:00,9.2,4.3,30.05,NW,309,5.8,6.9,80,0.00,SCT,SKC,0.00,WeatherDisplay:10.37,2013-01-31 08:52:00,
2013-01-31 02:57:00,9.2,4.0,30.05,NW,321,5.8,8.1,79,0.00,SCT,SKC,0.00,WeatherDisplay:10.37,2013-01-31 08:57:00,
2013-01-31 03:02:00,9.1,3.9,30.06,WNW,295,3.2,11.5,79,0.00,OVC,SKC,0.00,WeatherDisplay:10.37,2013-01-31 09:02:00,
2013-01-31 03:07:00,9.0,3.8,30.05,NNW,346,6.0,8.1,79,0.00,OVC,SKC,0.00,WeatherDisplay:10.37,2013-01-31 09:07:00,
2013-01-31 03:12:00,8.9,3.2,30.05,NNW,330,5.3,5.8,77,0.00,OVC,SKC,0.00,WeatherDisplay:10.37,2013-01-31 09:12:00,
2013-01-31 03:17:00,8.8,2.5,30.05,NNW,331,5.4,8.1,75,0.00,OVC,SKC,0.00,WeatherDisplay:10.37,2013-01-31 09:17:00,
2013-01-31 03:22:00,8.7,2.1,30.05,North,1,5.0,8.0,74,0.00,OVC,SKC,0.00,WeatherDisplay:10.37,2013-01-31 09:22:00,
2013-01-31 03:27:00,8.6,2.0,30.05,NW,311,4.6,6.9,74,0.00,OVC,SKC,0.00,WeatherDisplay:10.37,2013-01-31 09:27:00,
2013-01-31 03:32:00,8.5,1.6,30.05,WSW,245,4.5,10.4,73,0.00,OVC,SKC,0.00,WeatherDisplay:10.37,2013-01-31 09:32:00,
2013-01-31 03:37:00,8.3,1.7,30.06,NW,315,4.7,6.9,74,0.00,OVC,SKC,0.00,WeatherDisplay:10.37,2013-01-31 09:37:00,
2013-01-31 03:42:00,8.2,1.6,30.05,NW,324,2.4,3.5,74,0.00,OVC,SKC,0.00,WeatherDisplay:10.37,2013-01-31 09:42:00,
2013-01-31 03:47:00,8.1,1.5,30.05,NW,323,3.0,3.5,74,0.00,OVC,SKC,0.00,WeatherDisplay:10.37,2013-01-31 09:47:00,
2013-01-31 03:52:00,8.1,1.8,30.06,NNW,330,4.9,8.1,75,0.00,OVC,SKC,0.00,WeatherDisplay:10.37,2013-01-31 09:52:00,
2013-01-31 03:57:00,8.1,1.8,30.06,NNW,340,5.2,6.9,75,0.00,OVC,SKC,0.00,WeatherDisplay:10.37,2013-01-31 09:57:00,
2013-01-31 04:02:00,8.1,1.8,30.06,NNW,335,4.3,4.6,75,0.00,OVC,SKC,0.00,WeatherDisplay:10.37,2013-01-31 10:02:00,
2013-01-31 04:07:00,8.0,1.7,30.06,NW,323,4.6,6.0,75,0.00,OVC,SKC,0.00,WeatherDisplay:10.37,2013-01-31 10:07:00,
2013-01-31 04:12:00,8.0,2.0,30.06,NW,316,2.5,3.5,76,0.00,OVC,SKC,0.00,WeatherDisplay:10.37,2013-01-31 10:12:00,
2013-01-31 04:17:00,7.8,1.8,30.06,North,359,2.5,4.6,76,0.00,OVC,SKC,0.00,WeatherDisplay:10.37,2013-01-31 10:17:00,
2013-01-31 04:22:00,7.7,1.7,30.06,NW,316,3.2,5.0,76,0.00,BKN,SKC,0.00,WeatherDisplay:10.37,2013-01-31 10:22:00,
2013-01-31 04:27:00,7.7,1.7,30.07,NW,315,3.2,5.8,76,0.00,BKN,SKC,0.00,WeatherDisplay:10.37,2013-01-31 10:27:00,
2013-01-31 04:32:00,7.7,1.7,30.07,NNW,336,2.3,3.5,76,0.00,BKN,SKC,0.00,WeatherDisplay:10.37,2013-01-31 10:32:00,
2013-01-31 04:37:00,7.6,1.6,30.07,NNW,328,1.1,3.5,76,0.00,BKN,SKC,0.00,WeatherDisplay:10.37,2013-01-31 10:37:00,
2013-01-31 04:42:00,7.4,1.4,30.08,North,1,1.2,2.3,76,0.00,SCT,SKC,0.00,WeatherDisplay:10.37,2013-01-31 10:42:00,
2013-01-31 04:47:00,7.3,1.6,30.08,NW,315,3.8,5.0,77,0.00,SCT,SKC,0.00,WeatherDisplay:10.37,2013-01-31 10:47:00,
2013-01-31 04:52:00,7.2,1.5,30.09,WNW,288,2.4,3.5,77,0.00,SCT,SKC,0.00,WeatherDisplay:10.37,2013-01-31 10:52:00,
2013-01-31 04:57:00,7.1,1.4,30.09,WNW,296,1.1,2.3,77,0.00,SCT,SKC,0.00,WeatherDisplay:10.37,2013-01-31 10:57:00,
2013-01-31 05:02:00,7.0,1.3,30.09,NW,304,3.1,4.0,77,0.00,SCT,SKC,0.00,WeatherDisplay:10.37,2013-01-31 11:02:00,
2013-01-31 05:07:00,6.9,1.5,30.10,NW,307,3.3,4.6,78,0.00,SCT,SKC,0.00,WeatherDisplay:10.37,2013-01-31 11:07:00,
2013-01-31 05:12:00,6.8,1.4,30.10,WNW,290,2.9,3.5,78,0.00,SCT,SKC,0.00,WeatherDisplay:10.37,2013-01-31 11:12:00,
2013-01-31 05:17:00,6.7,1.3,30.10,NW,317,2.7,3.5,78,0.00,SCT,SKC,0.00,WeatherDisplay:10.37,2013-01-31 11:17:00,
2013-01-31 05:22:00,6.6,1.2,30.10,NW,316,3.7,6.9,78,0.00,CLR,SKC,0.00,WeatherDisplay:10.37,2013-01-31 11:22:00,
2013-01-31 05:27:00,6.6,1.2,30.10,WNW,300,5.0,6.9,78,0.00,CLR,SKC,0.00,WeatherDisplay:10.37,2013-01-31 11:27:00,
2013-01-31 05:32:00,6.7,1.3,30.11,NW,309,3.2,5.8,78,0.00,CLR,SKC,0.00,WeatherDisplay:10.37,2013-01-31 11:32:00,
2013-01-31 05:37:00,6.7,1.3,30.11,NNW,330,4.0,6.0,78,0.00,CLR,SKC,0.00,WeatherDisplay:10.37,2013-01-31 11:37:00,
2013-01-31 05:42:00,6.9,1.2,30.11,NW,316,6.2,8.0,77,0.00,BKN,SKC,0.00,WeatherDisplay:10.37,2013-01-31 11:42:00,
2013-01-31 05:47:00,7.0,1.3,30.11,NW,312,3.7,4.6,77,0.00,BKN,SKC,0.00,WeatherDisplay:10.37,2013-01-31 11:47:00,
2013-01-31 05:53:00,7.0,1.3,30.11,NNW,332,3.0,4.6,77,0.00,BKN,SKC,0.00,WeatherDisplay:10.37,2013-01-31 11:53:00,
2013-01-31 05:58:00,7.1,1.4,30.10,North,349,4.7,6.9,77,0.00,BKN,SKC,0.00,WeatherDisplay:10.37,2013-01-31 11:58:00,
2013-01-31 06:03:00,7.1,1.4,30.11,NNW,338,4.2,6.0,77,0.00,OVC,SKC,0.00,WeatherDisplay:10.37,2013-01-31 12:03:00,
2013-01-31 06:08:00,7.1,1.4,30.11,NW,315,2.6,3.5,77,0.00,OVC,SKC,0.00,WeatherDisplay:10.37,2013-01-31 12:08:00,
2013-01-31 06:13:00,7.1,1.4,30.11,NW,307,5.1,8.1,77,0.00,OVC,SKC,0.00,WeatherDisplay:10.37,2013-01-31 12:13:00,
2013-01-31 06:18:00,7.1,1.4,30.12,WNW,296,4.1,5.0,77,0.00,OVC,SKC,0.00,WeatherDisplay:10.37,2013-01-31 12:18:00,
2013-01-31 06:23:00,7.0,1.3,30.12,NW,312,4.9,8.1,77,0.00,OVC,SKC,0.00,WeatherDisplay:10.37,2013-01-31 12:23:00,
2013-01-31 06:28:00,7.0,1.3,30.12,WNW,293,1.9,3.5,77,0.00,OVC,SKC,0.00,WeatherDisplay:10.37,2013-01-31 12:28:00,
2013-01-31 06:33:00,6.9,1.2,30.11,NNW,327,4.2,5.8,77,0.00,OVC,SKC,0.00,WeatherDisplay:10.37,2013-01-31 12:33:00,
2013-01-31 06:38:00,6.9,1.2,30.12,North,6,7.3,9.2,77,0.00,OVC,SKC,0.00,WeatherDisplay:10.37,2013-01-31 12:38:00,
2013-01-31 06:43:00,6.9,0.9,30.12,NW,322,6.1,11.5,76,0.00,OVC,SKC,0.00,WeatherDisplay:10.37,2013-01-31 12:43:00,
2013-01-31 06:48:00,6.8,0.8,30.13,NNW,333,7.8,10.4,76,0.00,OVC,SKC,0.00,WeatherDisplay:10.37,2013-01-31 12:48:00,
2013-01-31 06:53:00,6.7,0.7,30.13,NNW,341,4.6,8.0,76,0.00,OVC,SKC,0.00,WeatherDisplay:10.37,2013-01-31 12:53:00,
2013-01-31 06:58:00,6.7,0.5,30.13,NW,307,4.3,11.5,75,0.00,OVC,SKC,0.00,WeatherDisplay:10.37,2013-01-31 12:58:00,
2013-01-31 07:03:00,6.6,0.6,30.14,NW,319,4.9,6.9,76,0.00,BKN,SKC,0.00,WeatherDisplay:10.37,2013-01-31 13:03:00,
2013-01-31 07:08:00,6.5,0.3,30.14,NW,312,6.1,10.4,75,0.00,BKN,SKC,0.00,WeatherDisplay:10.37,2013-01-31 13:08:00,
2013-01-31 07:13:00,6.4,0.2,30.15,NW,322,6.1,11.5,75,0.00,BKN,SKC,0.00,WeatherDisplay:10.37,2013-01-31 13:13:00,
2013-01-31 07:18:00,6.4,0.2,30.15,NW,307,6.3,6.9,75,0.00,BKN,SKC,0.00,WeatherDisplay:10.37,2013-01-31 13:18:00,
2013-01-31 07:23:00,6.3,0.1,30.15,NW,310,5.1,9.2,75,0.00,BKN,SKC,0.00,WeatherDisplay:10.37,2013-01-31 13:23:00,
2013-01-31 07:28:00,6.3,0.1,30.16,NW,315,5.5,6.9,75,0.00,BKN,SKC,0.00,WeatherDisplay:10.37,2013-01-31 13:28:00,
2013-01-31 07:33:00,6.2,0.0,30.16,NW,308,4.8,8.1,75,0.00,BKN,SKC,0.00,WeatherDisplay:10.37,2013-01-31 13:33:00,
2013-01-31 07:38:00,6.2,0.0,30.17,NNW,338,3.4,5.8,75,0.00,BKN,SKC,0.00,WeatherDisplay:10.37,2013-01-31 13:38:00,
2013-01-31 07:43:00,6.2,0.0,30.17,WNW,302,4.2,7.0,75,0.00,BKN,SKC,0.00,WeatherDisplay:10.37,2013-01-31 13:43:00,
2013-01-31 07:48:00,6.3,0.1,30.17,NW,316,4.0,8.1,75,0.00,BKN,SKC,0.00,WeatherDisplay:10.37,2013-01-31 13:48:00,
2013-01-31 07:53:00,6.3,0.1,30.17,NNW,330,2.3,3.5,75,0.00,BKN,SKC,0.00,WeatherDisplay:10.37,2013-01-31 13:53:00,
2013-01-31 07:58:00,6.5,0.0,30.18,NW,322,6.9,6.9,74,0.00,BKN,SKC,0.00,WeatherDisplay:10.37,2013-01-31 13:58:00,
2013-01-31 08:03:00,6.6,0.1,30.18,NNW,333,2.8,5.8,74,0.00,SCT,SKC,0.00,WeatherDisplay:10.37,2013-01-31 14:03:00,
2013-01-31 08:08:00,6.6,-0.2,30.18,NW,306,2.9,4.6,73,0.00,SCT,SKC,0.00,WeatherDisplay:10.37,2013-01-31 14:08:00,
2013-01-31 08:13:00,6.8,0.0,30.18,WNW,299,4.4,5.8,73,0.00,SCT,SKC,0.00,WeatherDisplay:10.37,2013-01-31 14:13:00,
2013-01-31 08:18:00,6.9,-0.2,30.18,NNW,335,4.9,7.0,72,0.00,SCT,SKC,0.00,WeatherDisplay:10.37,2013-01-31 14:18:00,
2013-01-31 08:23:00,6.9,-0.5,30.18,NNW,336,6.0,8.1,71,0.00,CLR,SKC,0.00,WeatherDisplay:10.37,2013-01-31 14:23:00,
2013-01-31 08:28:00,7.0,-0.4,30.19,WNW,297,5.2,6.9,71,0.00,CLR,SKC,0.00,WeatherDisplay:10.37,2013-01-31 14:28:00,
2013-01-31 08:33:00,7.1,-0.6,30.20,NW,316,4.5,8.1,70,0.00,CLR,SKC,0.00,WeatherDisplay:10.37,2013-01-31 14:33:00,
2013-01-31 08:38:00,7.2,-0.5,30.20,NW,325,6.7,9.2,70,0.00,CLR,SKC,0.00,WeatherDisplay:10.37,2013-01-31 14:38:00,
2013-01-31 08:43:00,7.1,-0.9,30.20,NW,308,4.3,5.8,69,0.00,CLR,SKC,0.00,WeatherDisplay:10.37,2013-01-31 14:43:00,
2013-01-31 08:48:00,7.2,-0.5,30.21,NW,316,7.2,10.4,70,0.00,CLR,SKC,0.00,WeatherDisplay:10.37,2013-01-31 14:48:00,
2013-01-31 08:53:00,7.4,-0.3,30.21,NW,319,4.2,4.6,70,0.00,CLR,SKC,0.00,WeatherDisplay:10.37,2013-01-31 14:53:00,
2013-01-31 08:58:00,7.5,-0.2,30.21,NW,314,2.3,4.0,70,0.00,CLR,SKC,0.00,WeatherDisplay:10.37,2013-01-31 14:58:00,
2013-01-31 09:03:00,7.5,-0.6,30.22,NW,312,8.5,15.0,69,0.00,CLR,SKC,0.00,WeatherDisplay:10.37,2013-01-31 15:03:00,
2013-01-31 09:08:00,7.4,-1.0,30.22,NW,312,9.4,12.7,68,0.00,CLR,SKC,0.00,WeatherDisplay:10.37,2013-01-31 15:08:00,
2013-01-31 09:13:00,7.5,-0.9,30.23,NW,307,3.7,6.9,68,0.00,CLR,SKC,0.00,WeatherDisplay:10.37,2013-01-31 15:13:00,
2013-01-31 09:18:00,7.6,-0.8,30.23,NW,318,8.1,11.5,68,0.00,CLR,SKC,0.00,WeatherDisplay:10.37,2013-01-31 15:18:00,
2013-01-31 09:23:00,7.7,-0.4,30.24,NW,325,3.6,4.6,69,0.00,CLR,SKC,0.00,WeatherDisplay:10.37,2013-01-31 15:23:00,
2013-01-31 09:28:00,8.0,-0.1,30.24,WNW,293,4.6,5.8,69,0.00,CLR,SKC,0.00,WeatherDisplay:10.37,2013-01-31 15:28:00,
2013-01-31 09:33:00,8.4,0.3,30.24,West,281,6.3,10.4,69,0.00,CLR,SKC,0.00,WeatherDisplay:10.37,2013-01-31 15:33:00,
2013-01-31 09:38:00,8.5,0.1,30.25,NW,319,5.9,11.5,68,0.00,CLR,SKC,0.00,WeatherDisplay:10.37,2013-01-31 15:38:00,
2013-01-31 09:43:00,8.2,-0.5,30.25,NNW,327,7.6,13.8,67,0.00,CLR,SKC,0.00,WeatherDisplay:10.37,2013-01-31 15:43:00,
2013-01-31 09:48:00,7.6,-1.7,30.26,NW,316,11.3,19.6,65,0.00,CLR,SKC,0.00,WeatherDisplay:10.37,2013-01-31 15:48:00,
2013-01-31 09:53:00,7.5,-1.5,30.26,North,9,8.1,11.5,66,0.00,CLR,SKC,0.00,WeatherDisplay:10.37,2013-01-31 15:53:00,
2013-01-31 09:58:00,7.3,-1.7,30.27,NW,323,10.3,16.1,66,0.00,CLR,SKC,0.00,WeatherDisplay:10.37,2013-01-31 15:58:00,
2013-01-31 10:03:00,7.1,-1.6,30.27,NNW,335,10.1,15.0,67,0.00,SCT,SKC,0.00,WeatherDisplay:10.37,2013-01-31 16:03:00,
2013-01-31 10:08:00,7.0,-2.0,30.27,NW,315,12.0,17.3,66,0.00,SCT,SKC,0.00,WeatherDisplay:10.37,2013-01-31 16:08:00,
2013-01-31 10:13:00,7.0,-1.7,30.28,NNW,327,7.7,12.7,67,0.00,SCT,SKC,0.00,WeatherDisplay:10.37,2013-01-31 16:13:00,
2013-01-31 10:18:00,7.1,-1.2,30.29,NNW,332,6.9,10.4,68,0.00,SCT,SKC,0.00,WeatherDisplay:10.37,2013-01-31 16:18:00,
2013-01-31 10:23:00,7.2,-0.8,30.29,WNW,301,8.9,13.8,69,0.00,OVC,SKC,0.00,WeatherDisplay:10.37,2013-01-31 16:23:00,
2013-01-31 10:28:00,7.1,-1.2,30.30,NW,321,9.6,11.5,68,0.00,OVC,SKC,0.00,WeatherDisplay:10.37,2013-01-31 16:28:00,
2013-01-31 10:33:00,6.7,-2.9,30.30,NW,308,13.0,18.4,64,0.00,OVC,SKC,0.00,WeatherDisplay:10.37,2013-01-31 16:33:00,
2013-01-31 10:38:00,6.7,-2.3,30.30,NW,314,14.2,18.4,66,0.00,OVC,SKC,0.00,WeatherDisplay:10.37,2013-01-31 16:38:00,
2013-01-31 10:43:00,6.3,-2.3,30.31,NW,317,11.2,15.0,67,0.00,OVC,SKC,0.00,WeatherDisplay:10.37,2013-01-31 16:43:00,
2013-01-31 10:48:00,6.1,-2.2,30.31,WNW,300,9.8,15.0,68,0.00,OVC,SKC,0.00,WeatherDisplay:10.37,2013-01-31 16:48:00,
2013-01-31 10:53:00,6.1,-2.2,30.31,WNW,293,7.9,11.5,68,0.00,OVC,SKC,0.00,WeatherDisplay:10.37,2013-01-31 16:53:00,
2013-01-31 10:58:00,6.3,-2.0,30.32,NW,309,9.4,19.6,68,0.00,OVC,SKC,0.00,WeatherDisplay:10.37,2013-01-31 16:58:00,
2013-01-31 11:03:00,6.4,-1.9,30.31,NW,311,14.1,18.0,68,0.00,OVC,SKC,0.00,WeatherDisplay:10.37,2013-01-31 17:03:00,
2013-01-31 11:08:00,6.3,-1.7,30.32,NNW,343,9.1,11.5,69,0.00,OVC,SKC,0.00,WeatherDisplay:10.37,2013-01-31 17:08:00,
2013-01-31 11:13:00,6.4,-1.6,30.33,WNW,302,9.6,11.5,69,0.00,OVC,SKC,0.00,WeatherDisplay:10.37,2013-01-31 17:13:00,
2013-01-31 11:18:00,6.5,-1.2,30.33,NW,307,6.8,9.0,70,0.00,OVC,SKC,0.00,WeatherDisplay:10.37,2013-01-31 17:18:00,
2013-01-31 11:23:00,6.5,-1.2,30.33,WNW,301,11.5,15.0,70,0.00,OVC,SKC,0.00,WeatherDisplay:10.37,2013-01-31 17:23:00,
2013-01-31 11:28:00,6.5,-1.5,30.33,NNW,338,11.7,17.3,69,0.00,OVC,SKC,0.00,WeatherDisplay:10.37,2013-01-31 17:28:00,
2013-01-31 11:33:00,6.6,-2.0,30.33,NW,309,8.5,13.0,67,0.00,OVC,SKC,0.00,WeatherDisplay:10.37,2013-01-31 17:33:00,
2013-01-31 11:39:00,6.9,-1.4,30.33,NW,309,7.7,17.3,68,0.00,OVC,SKC,0.00,WeatherDisplay:10.37,2013-01-31 17:39:00,
2013-01-31 11:43:00,7.0,-1.3,30.33,North,349,10.4,18.4,68,0.00,SCT,SKC,0.00,WeatherDisplay:10.37,2013-01-31 17:43:00,
2013-01-31 11:49:00,6.9,-1.4,30.33,NW,315,8.8,12.7,68,0.00,SCT,SKC,0.00,WeatherDisplay:10.37,2013-01-31 17:49:00,
2013-01-31 11:54:00,7.1,-0.9,30.34,NW,308,6.7,19.0,69,0.00,SCT,SKC,0.00,WeatherDisplay:10.37,2013-01-31 17:54:00,
2013-01-31 11:59:00,7.0,-1.0,30.34,NW,307,6.6,11.5,69,0.00,SCT,SKC,0.00,WeatherDisplay:10.37,2013-01-31 17:59:00,
2013-01-31 12:04:00,7.0,-1.3,30.34,NW,306,8.6,16.1,68,0.00,SCT,SKC,0.00,WeatherDisplay:10.37,2013-01-31 18:04:00,
2013-01-31 12:09:00,6.6,-2.0,30.34,NW,304,10.1,12.7,67,0.00,SCT,SKC,0.00,WeatherDisplay:10.37,2013-01-31 18:09:00,
2013-01-31 12:14:00,6.5,-2.5,30.34,NW,319,12.6,19.6,66,0.00,SCT,SKC,0.00,WeatherDisplay:10.37,2013-01-31 18:14:00,
2013-01-31 12:19:00,6.5,-3.1,30.34,NW,318,9.0,17.3,64,0.00,SCT,SKC,0.00,WeatherDisplay:10.37,2013-01-31 18:19:00,
2013-01-31 12:24:00,6.5,-3.1,30.35,WNW,293,7.5,13.0,64,0.00,BKN,SKC,0.00,WeatherDisplay:10.37,2013-01-31 18:24:00,
2013-01-31 12:29:00,6.6,-3.3,30.35,WNW,293,10.1,16.1,63,0.00,BKN,SKC,0.00,WeatherDisplay:10.37,2013-01-31 18:29:00,
2013-01-31 12:34:00,6.6,-3.7,30.35,NNE,14,8.5,15.0,62,0.00,BKN,SKC,0.00,WeatherDisplay:10.37,2013-01-31 18:34:00,
2013-01-31 12:39:00,6.7,-3.2,30.35,NW,323,7.2,12.7,63,0.00,BKN,SKC,0.00,WeatherDisplay:10.37,2013-01-31 18:39:00,
2013-01-31 12:44:00,6.6,-3.3,30.35,NW,325,7.9,11.5,63,0.00,SCT,SKC,0.00,WeatherDisplay:10.37,2013-01-31 18:44:00,
2013-01-31 12:49:00,6.7,-3.2,30.35,NW,318,6.3,11.5,63,0.00,SCT,SKC,0.00,WeatherDisplay:10.37,2013-01-31 18:49:00,
2013-01-31 12:54:00,7.1,-2.9,30.36,NW,312,5.8,9.2,63,0.00,SCT,SKC,0.00,WeatherDisplay:10.37,2013-01-31 18:54:00,
2013-01-31 12:59:00,7.4,-2.9,30.35,NW,304,9.5,11.5,62,0.00,SCT,SKC,0.00,WeatherDisplay:10.37,2013-01-31 18:59:00,
2013-01-31 13:04:00,7.2,-3.4,30.36,NW,311,11.7,19.6,61,0.00,SCT,SKC,0.00,WeatherDisplay:10.37,2013-01-31 19:04:00,
2013-01-31 13:09:00,6.9,-3.7,30.36,NW,323,11.0,15.0,61,0.00,SCT,SKC,0.00,WeatherDisplay:10.37,2013-01-31 19:09:00,
2013-01-31 13:14:00,7.2,-2.8,30.36,NNW,333,9.7,17.3,63,0.00,SCT,SKC,0.00,WeatherDisplay:10.37,2013-01-31 19:14:00,
2013-01-31 13:19:00,7.3,-3.0,30.36,NNW,338,9.0,13.8,62,0.00,SCT,SKC,0.00,WeatherDisplay:10.37,2013-01-31 19:19:00,
2013-01-31 13:24:00,7.6,-2.7,30.36,NW,325,7.4,11.5,62,0.00,SCT,SKC,0.00,WeatherDisplay:10.37,2013-01-31 19:24:00,
2013-01-31 13:29:00,7.7,-2.3,30.37,NW,306,8.3,12.7,63,0.00,SCT,SKC,0.00,WeatherDisplay:10.37,2013-01-31 19:29:00,
2013-01-31 13:34:00,7.8,-2.5,30.36,NW,318,10.0,16.1,62,0.00,SCT,SKC,0.00,WeatherDisplay:10.37,2013-01-31 19:34:00,
2013-01-31 13:39:00,8.1,-1.9,30.36,NW,312,8.3,12.7,63,0.00,SCT,SKC,0.00,WeatherDisplay:10.37,2013-01-31 19:39:00,
2013-01-31 13:44:00,8.1,-1.9,30.36,NW,326,12.7,19.6,63,0.00,BKN,SKC,0.00,WeatherDisplay:10.37,2013-01-31 19:44:00,
2013-01-31 13:49:00,7.8,-3.2,30.36,NW,307,12.0,16.1,60,0.00,BKN,SKC,0.00,WeatherDisplay:10.37,2013-01-31 19:49:00,
2013-01-31 13:54:00,7.5,-3.5,30.36,NW,314,14.3,18.4,60,0.00,BKN,SKC,0.00,WeatherDisplay:10.37,2013-01-31 19:54:00,
2013-01-31 13:59:00,7.5,-3.2,30.37,NNE,12,12.7,21.0,61,0.00,BKN,SKC,0.00,WeatherDisplay:10.37,2013-01-31 19:59:00,
2013-01-31 14:04:00,7.4,-3.3,30.37,NW,309,10.8,15.0,61,0.00,SCT,SKC,0.00,WeatherDisplay:10.37,2013-01-31 20:04:00,
2013-01-31 14:09:00,7.6,-2.7,30.37,NW,309,10.2,15.0,62,0.00,SCT,SKC,0.00,WeatherDisplay:10.37,2013-01-31 20:09:00,
2013-01-31 14:14:00,7.8,-2.2,30.37,NW,312,6.3,11.5,63,0.00,SCT,SKC,0.00,WeatherDisplay:10.37,2013-01-31 20:14:00,
2013-01-31 14:19:00,7.8,-2.5,30.37,NNW,342,8.2,12.0,62,0.00,SCT,SKC,0.00,WeatherDisplay:10.37,2013-01-31 20:19:00,
2013-01-31 14:24:00,7.8,-2.5,30.37,NW,310,9.9,15.0,62,0.00,SCT,SKC,0.00,WeatherDisplay:10.37,2013-01-31 20:24:00,
2013-01-31 14:29:00,8.0,-2.0,30.37,NW,321,6.9,13.8,63,0.00,SCT,SKC,0.00,WeatherDisplay:10.37,2013-01-31 20:29:00,
2013-01-31 14:34:00,8.3,-1.7,30.37,North,349,10.8,16.1,63,0.00,SCT,SKC,0.00,WeatherDisplay:10.37,2013-01-31 20:34:00,
2013-01-31 14:39:00,8.1,-2.6,30.37,NNW,328,11.2,17.3,61,0.00,SCT,SKC,0.00,WeatherDisplay:10.37,2013-01-31 20:39:00,
2013-01-31 14:44:00,8.0,-2.3,30.38,NNW,330,8.5,12.7,62,0.00,SCT,SKC,0.00,WeatherDisplay:10.37,2013-01-31 20:44:00,
2013-01-31 14:49:00,7.9,-2.4,30.38,NW,306,7.6,15.0,62,0.00,SCT,SKC,0.00,WeatherDisplay:10.37,2013-01-31 20:49:00,
2013-01-31 14:54:00,7.7,-3.0,30.38,NW,316,13.5,19.6,61,0.00,SCT,SKC,0.00,WeatherDisplay:10.37,2013-01-31 20:54:00,
2013-01-31 14:59:00,7.6,-3.1,30.39,NW,325,7.9,17.3,61,0.00,SCT,SKC,0.00,WeatherDisplay:10.37,2013-01-31 20:59:00,
2013-01-31 15:04:00,7.6,-3.4,30.39,NW,311,10.7,15.0,60,0.00,SCT,SKC,0.00,WeatherDisplay:10.37,2013-01-31 21:04:00,
2013-01-31 15:09:00,8.0,-3.0,30.39,NNW,338,8.7,13.8,60,0.00,SCT,SKC,0.00,WeatherDisplay:10.37,2013-01-31 21:09:00,
2013-01-31 15:14:00,7.8,-3.2,30.39,NW,309,12.1,15.0,60,0.00,SCT,SKC,0.00,WeatherDisplay:10.37,2013-01-31 21:14:00,
2013-01-31 15:19:00,7.8,-3.2,30.39,NW,311,6.8,10.4,60,0.00,SCT,SKC,0.00,WeatherDisplay:10.37,2013-01-31 21:19:00,
2013-01-31 15:24:00,7.9,-3.1,30.40,NNW,333,6.3,11.5,60,0.00,SCT,SKC,0.00,WeatherDisplay:10.37,2013-01-31 21:24:00,
2013-01-31 15:29:00,8.1,-2.9,30.40,NW,323,4.2,6.9,60,0.00,SCT,SKC,0.00,WeatherDisplay:10.37,2013-01-31 21:29:00,
2013-01-31 15:34:00,8.1,-3.3,30.40,NNW,330,8.4,12.0,59,0.00,SCT,SKC,0.00,WeatherDisplay:10.37,2013-01-31 21:34:00,
2013-01-31 15:39:00,7.8,-3.6,30.40,NW,316,10.7,13.8,59,0.00,SCT,SKC,0.00,WeatherDisplay:10.37,2013-01-31 21:39:00,
2013-01-31 15:44:00,7.7,-3.3,30.40,NW,316,8.4,16.1,60,0.00,CLR,SKC,0.00,WeatherDisplay:10.37,2013-01-31 21:44:00,
2013-01-31 15:49:00,8.0,-3.0,30.41,WNW,298,8.2,11.5,60,0.00,CLR,SKC,0.00,WeatherDisplay:10.37,2013-01-31 21:49:00,
2013-01-31 15:54:00,7.9,-3.1,30.41,NW,326,9.8,12.7,60,0.00,CLR,SKC,0.00,WeatherDisplay:10.37,2013-01-31 21:54:00,
2013-01-31 15:59:00,7.8,-3.2,30.41,NW,319,5.5,9.0,60,0.00,CLR,SKC,0.00,WeatherDisplay:10.37,2013-01-31 21:59:00,
2013-01-31 16:04:00,7.8,-3.2,30.41,NW,309,10.1,13.0,60,0.00,CLR,SKC,0.00,WeatherDisplay:10.37,2013-01-31 22:04:00,
2013-01-31 16:09:00,7.6,-3.4,30.41,NW,321,9.4,15.0,60,0.00,CLR,SKC,0.00,WeatherDisplay:10.37,2013-01-31 22:09:00,
2013-01-31 16:14:00,7.6,-3.1,30.42,NW,323,5.8,8.1,61,0.00,CLR,SKC,0.00,WeatherDisplay:10.37,2013-01-31 22:14:00,
2013-01-31 16:19:00,7.6,-3.1,30.42,NNW,336,8.6,10.4,61,0.00,CLR,SKC,0.00,WeatherDisplay:10.37,2013-01-31 22:19:00,
2013-01-31 16:24:00,7.6,-3.1,30.42,NW,304,8.6,12.7,61,0.00,CLR,SKC,0.00,WeatherDisplay:10.37,2013-01-31 22:24:00,
2013-01-31 16:29:00,7.4,-3.3,30.42,WNW,293,6.0,9.2,61,0.00,CLR,SKC,0.00,WeatherDisplay:10.37,2013-01-31 22:29:00,
2013-01-31 16:34:00,7.3,-3.0,30.42,NNW,338,7.4,11.5,62,0.00,CLR,SKC,0.00,WeatherDisplay:10.37,2013-01-31 22:34:00,
2013-01-31 16:39:00,7.3,-2.7,30.42,NNW,330,7.2,10.4,63,0.00,CLR,SKC,0.00,WeatherDisplay:10.37,2013-01-31 22:39:00,
2013-01-31 16:44:00,7.1,-3.2,30.42,NW,313,6.4,9.2,62,0.00,SCT,SKC,0.00,WeatherDisplay:10.37,2013-01-31 22:44:00,
2013-01-31 16:49:00,6.9,-3.1,30.43,NW,311,4.2,5.8,63,0.00,SCT,SKC,0.00,WeatherDisplay:10.37,2013-01-31 22:49:00,
2013-01-31 16:54:00,6.8,-3.1,30.43,NW,321,5.4,11.5,63,0.00,SCT,SKC,0.00,WeatherDisplay:10.37,2013-01-31 22:54:00,
2013-01-31 16:59:00,6.6,-3.3,30.43,NNW,344,6.1,10.4,63,0.00,SCT,SKC,0.00,WeatherDisplay:10.37,2013-01-31 22:59:00,
2013-01-31 17:04:00,6.5,-3.4,30.43,West,281,5.7,5.8,63,0.00,SCT,SKC,0.00,WeatherDisplay:10.37,2013-01-31 23:04:00,
2013-01-31 17:09:00,6.3,-3.6,30.43,WNW,287,6.3,11.5,63,0.00,SCT,SKC,0.00,WeatherDisplay:10.37,2013-01-31 23:09:00,
2013-01-31 17:14:00,6.2,-3.7,30.43,WNW,295,4.1,5.8,63,0.00,SCT,SKC,0.00,WeatherDisplay:10.37,2013-01-31 23:14:00,
2013-01-31 17:19:00,5.9,-4.0,30.43,NW,316,5.2,11.5,63,0.00,SCT,SKC,0.00,WeatherDisplay:10.37,2013-01-31 23:19:00,
2013-01-31 17:24:00,5.8,-3.8,30.44,NW,310,4.2,9.2,64,0.00,CLR,SKC,0.00,WeatherDisplay:10.37,2013-01-31 23:24:00,
2013-01-31 17:29:00,5.6,-4.0,30.44,WNW,290,6.5,8.1,64,0.00,CLR,SKC,0.00,WeatherDisplay:10.37,2013-01-31 23:29:00,
2013-01-31 17:35:00,5.4,-4.2,30.44,NW,326,5.5,12.7,64,0.00,CLR,SKC,0.00,WeatherDisplay:10.37,2013-01-31 23:35:00,
2013-01-31 17:40:00,5.3,-3.9,30.44,NW,315,4.4,8.1,65,0.00,CLR,SKC,0.00,WeatherDisplay:10.37,2013-01-31 23:40:00,
2013-01-31 17:45:00,5.1,-4.1,30.44,NW,310,5.6,6.9,65,0.00,CLR,SKC,0.00,WeatherDisplay:10.37,2013-01-31 23:45:00,
2013-01-31 17:50:00,5.0,-4.2,30.44,NW,315,3.6,5.8,65,0.00,CLR,SKC,0.00,WeatherDisplay:10.37,2013-01-31 23:50:00,
2013-01-31 17:55:00,4.9,-4.3,30.45,WNW,297,5.3,8.1,65,0.00,CLR,SKC,0.00,WeatherDisplay:10.37,2013-01-31 23:55:00,
2013-01-31 18:00:00,4.7,-4.5,30.45,WNW,297,4.5,6.9,65,0.00,CLR,SKC,0.00,WeatherDisplay:10.37,2013-02-01 00:00:00,
2013-01-31 18:05:00,4.6,-4.3,30.45,NW,312,5.1,7.0,66,0.00,CLR,SKC,0.00,WeatherDisplay:10.37,2013-02-01 00:05:00,
2013-01-31 18:10:00,4.5,-4.4,30.46,WNW,293,2.3,5.8,66,0.00,CLR,SKC,0.00,WeatherDisplay:10.37,2013-02-01 00:10:00,
2013-01-31 18:15:00,4.3,-4.6,30.46,NW,309,3.4,4.0,66,0.00,CLR,SKC,0.00,WeatherDisplay:10.37,2013-02-01 00:15:00,
2013-01-31 18:20:00,4.2,-4.7,30.46,NW,315,5.9,6.9,66,0.00,CLR,SKC,0.00,WeatherDisplay:10.37,2013-02-01 00:20:00,
2013-01-31 18:25:00,4.1,-4.4,30.46,WNW,299,2.6,3.5,67,0.00,CLR,SKC,0.00,WeatherDisplay:10.37,2013-02-01 00:25:00,
2013-01-31 18:30:00,4.0,-4.5,30.46,West,281,3.4,6.0,67,0.00,CLR,SKC,0.00,WeatherDisplay:10.37,2013-02-01 00:30:00,
2013-01-31 18:35:00,3.9,-4.6,30.46,NW,316,5.9,6.0,67,0.00,CLR,SKC,0.00,WeatherDisplay:10.37,2013-02-01 00:35:00,
2013-01-31 18:40:00,3.7,-4.8,30.46,NW,319,4.7,5.8,67,0.00,CLR,SKC,0.00,WeatherDisplay:10.37,2013-02-01 00:40:00,
2013-01-31 18:45:00,3.6,-4.9,30.47,NW,309,3.7,8.1,67,0.00,CLR,SKC,0.00,WeatherDisplay:10.37,2013-02-01 00:45:00,
2013-01-31 18:50:00,3.5,-5.0,30.47,NW,315,3.5,6.0,67,0.00,CLR,SKC,0.00,WeatherDisplay:10.37,2013-02-01 00:50:00,
2013-01-31 18:55:00,3.3,-5.2,30.47,NW,311,4.6,5.0,67,0.00,CLR,SKC,0.00,WeatherDisplay:10.37,2013-02-01 00:55:00,
2013-01-31 19:00:00,3.3,-5.2,30.47,NNW,331,3.6,4.6,67,0.00,CLR,SKC,0.00,WeatherDisplay:10.37,2013-02-01 01:00:00,
2013-01-31 19:05:00,3.1,-5.1,30.47,NNW,328,3.5,3.5,68,0.00,CLR,SKC,0.00,WeatherDisplay:10.37,2013-02-01 01:05:00,
2013-01-31 19:10:00,3.0,-5.2,30.48,NW,311,3.1,5.8,68,0.00,CLR,SKC,0.00,WeatherDisplay:10.37,2013-02-01 01:10:00,
2013-01-31 19:15:00,2.9,-5.3,30.48,NW,314,1.7,2.3,68,0.00,CLR,SKC,0.00,WeatherDisplay:10.37,2013-02-01 01:15:00,
2013-01-31 19:20:00,2.8,-5.4,30.48,NNE,13,3.0,4.6,68,0.00,CLR,SKC,0.00,WeatherDisplay:10.37,2013-02-01 01:20:00,
2013-01-31 19:25:00,2.7,-5.2,30.48,NNW,339,1.8,4.6,69,0.00,CLR,SKC,0.00,WeatherDisplay:10.37,2013-02-01 01:25:00,
2013-01-31 19:30:00,2.6,-5.3,30.48,NW,315,3.6,5.8,69,0.00,CLR,SKC,0.00,WeatherDisplay:10.37,2013-02-01 01:30:00,
2013-01-31 19:35:00,2.6,-5.3,30.48,NW,322,2.9,3.5,69,0.00,CLR,SKC,0.00,WeatherDisplay:10.37,2013-02-01 01:35:00,
2013-01-31 19:40:00,2.5,-5.1,30.48,NW,317,1.9,3.0,70,0.00,CLR,SKC,0.00,WeatherDisplay:10.37,2013-02-01 01:40:00,
2013-01-31 19:45:00,2.4,-5.2,30.48,NNW,335,2.0,2.3,70,0.00,CLR,SKC,0.00,WeatherDisplay:10.37,2013-02-01 01:45:00,
2013-01-31 19:50:00,2.3,-5.3,30.48,NW,321,2.8,3.5,70,0.00,CLR,SKC,0.00,WeatherDisplay:10.37,2013-02-01 01:50:00,
2013-01-31 19:55:00,2.2,-5.4,30.49,West,278,1.1,2.3,70,0.00,CLR,SKC,0.00,WeatherDisplay:10.37,2013-02-01 01:55:00,
2013-01-31 20:00:00,2.2,-5.1,30.49,NW,320,2.4,3.5,71,0.00,CLR,SKC,0.00,WeatherDisplay:10.37,2013-02-01 02:00:00,
2013-01-31 20:05:00,2.2,-5.1,30.49,NW,309,3.9,3.9,71,0.00,CLR,SKC,0.00,WeatherDisplay:10.37,2013-02-01 02:05:00,
2013-01-31 20:10:00,2.2,-5.1,30.49,NW,316,3.7,5.8,71,0.00,CLR,SKC,0.00,WeatherDisplay:10.37,2013-02-01 02:10:00,
2013-01-31 20:15:00,2.0,-5.2,30.49,WNW,296,2.6,4.0,71,0.00,CLR,SKC,0.00,WeatherDisplay:10.37,2013-02-01 02:15:00,
2013-01-31 20:20:00,2.0,-5.2,30.49,NNW,338,2.8,6.0,71,0.00,CLR,SKC,0.00,WeatherDisplay:10.37,2013-02-01 02:20:00,
2013-01-31 20:25:00,1.9,-5.3,30.49,NW,321,3.6,4.6,71,0.00,CLR,SKC,0.00,WeatherDisplay:10.37,2013-02-01 02:25:00,
2013-01-31 20:30:00,1.8,-5.4,30.49,NW,326,3.3,5.8,71,0.00,CLR,SKC,0.00,WeatherDisplay:10.37,2013-02-01 02:30:00,
2013-01-31 20:35:00,1.8,-5.4,30.49,NW,323,2.4,3.5,71,0.00,CLR,SKC,0.00,WeatherDisplay:10.37,2013-02-01 02:35:00,
2013-01-31 20:40:00,1.7,-5.5,30.49,NNW,327,4.1,6.9,71,0.00,CLR,SKC,0.00,WeatherDisplay:10.37,2013-02-01 02:40:00,
2013-01-31 20:45:00,1.7,-5.5,30.50,NW,309,2.9,6.0,71,0.00,CLR,SKC,0.00,WeatherDisplay:10.37,2013-02-01 02:45:00,
2013-01-31 20:50:00,1.7,-5.5,30.50,NNW,332,2.3,4.6,71,0.00,CLR,SKC,0.00,WeatherDisplay:10.37,2013-02-01 02:50:00,
2013-01-31 20:55:00,1.7,-5.5,30.50,NW,320,2.5,4.6,71,0.00,CLR,SKC,0.00,WeatherDisplay:10.37,2013-02-01 02:55:00,
2013-01-31 21:00:00,1.6,-5.6,30.50,NNW,330,3.7,4.6,71,0.00,CLR,SKC,0.00,WeatherDisplay:10.37,2013-02-01 03:00:00,
2013-01-31 21:05:00,1.6,-5.6,30.50,NW,325,2.9,4.6,71,0.00,CLR,SKC,0.00,WeatherDisplay:10.37,2013-02-01 03:05:00,
2013-01-31 21:10:00,1.6,-5.6,30.50,NNW,333,4.7,5.8,71,0.00,CLR,SKC,0.00,WeatherDisplay:10.37,2013-02-01 03:10:00,
2013-01-31 21:15:00,1.5,-5.7,30.50,North,351,2.3,3.5,71,0.00,CLR,SKC,0.00,WeatherDisplay:10.37,2013-02-01 03:15:00,
2013-01-31 21:20:00,1.4,-5.8,30.51,NW,307,1.9,3.5,71,0.00,CLR,SKC,0.00,WeatherDisplay:10.37,2013-02-01 03:20:00,
2013-01-31 21:25:00,1.4,-5.8,30.51,NW,309,1.2,2.3,71,0.00,CLR,SKC,0.00,WeatherDisplay:10.37,2013-02-01 03:25:00,
2013-01-31 21:30:00,1.3,-5.9,30.51,NW,317,2.5,3.5,71,0.00,CLR,SKC,0.00,WeatherDisplay:10.37,2013-02-01 03:30:00,
2013-01-31 21:35:00,1.1,-5.8,30.51,WNW,295,1.8,3.5,72,0.00,CLR,SKC,0.00,WeatherDisplay:10.37,2013-02-01 03:35:00,
2013-01-31 21:40:00,1.0,-5.9,30.52,NW,307,2.2,3.5,72,0.00,CLR,SKC,0.00,WeatherDisplay:10.37,2013-02-01 03:40:00,
2013-01-31 21:45:00,0.9,-6.0,30.52,NW,321,1.5,3.5,72,0.00,CLR,SKC,0.00,WeatherDisplay:10.37,2013-02-01 03:45:00,
2013-01-31 21:50:00,0.8,-6.1,30.52,NW,310,2.3,3.5,72,0.00,CLR,SKC,0.00,WeatherDisplay:10.37,2013-02-01 03:50:00,
2013-01-31 21:55:00,0.7,-5.9,30.52,WNW,299,1.6,3.5,73,0.00,CLR,SKC,0.00,WeatherDisplay:10.37,2013-02-01 03:55:00,
2013-01-31 22:00:00,0.6,-6.0,30.52,NW,315,2.0,2.3,73,0.00,CLR,SKC,0.00,WeatherDisplay:10.37,2013-02-01 04:00:00,
2013-01-31 22:05:00,0.6,-6.0,30.52,WNW,296,2.3,3.5,73,0.00,CLR,SKC,0.00,WeatherDisplay:10.37,2013-02-01 04:05:00,
2013-01-31 22:10:00,0.5,-6.1,30.52,NNW,328,1.9,3.5,73,0.00,CLR,SKC,0.00,WeatherDisplay:10.37,2013-02-01 04:10:00,
2013-01-31 22:15:00,0.5,-6.1,30.52,NW,312,1.3,2.3,73,0.00,CLR,SKC,0.00,WeatherDisplay:10.37,2013-02-01 04:15:00,
2013-01-31 22:20:00,0.4,-6.2,30.52,NNW,338,1.2,2.3,73,0.00,CLR,SKC,0.00,WeatherDisplay:10.37,2013-02-01 04:20:00,
2013-01-31 22:25:00,0.3,-6.0,30.53,NW,322,0.6,1.1,74,0.00,CLR,SKC,0.00,WeatherDisplay:10.37,2013-02-01 04:25:00,
2013-01-31 22:30:00,0.3,-6.0,30.53,NW,323,0.8,2.3,74,0.00,CLR,SKC,0.00,WeatherDisplay:10.37,2013-02-01 04:30:00,
2013-01-31 22:35:00,0.2,-6.1,30.53,NW,307,1.1,2.3,74,0.00,CLR,SKC,0.00,WeatherDisplay:10.37,2013-02-01 04:35:00,
2013-01-31 22:40:00,0.2,-6.1,30.53,WNW,295,0.7,2.3,74,0.00,CLR,SKC,0.00,WeatherDisplay:10.37,2013-02-01 04:40:00,
2013-01-31 22:45:00,0.2,-6.1,30.53,NW,321,1.4,2.3,74,0.00,CLR,SKC,0.00,WeatherDisplay:10.37,2013-02-01 04:45:00,
2013-01-31 22:50:00,0.2,-6.1,30.53,NW,321,1.1,2.3,74,0.00,CLR,SKC,0.00,WeatherDisplay:10.37,2013-02-01 04:50:00,
2013-01-31 22:55:00,0.2,-6.1,30.53,NW,311,1.9,3.5,74,0.00,CLR,SKC,0.00,WeatherDisplay:10.37,2013-02-01 04:55:00,
2013-01-31 23:00:00,0.2,-6.4,30.53,NW,307,1.0,4.0,73,0.00,CLR,SKC,0.00,WeatherDisplay:10.37,2013-02-01 05:00:00,
2013-01-31 23:01:00,0.2,-6.4,30.52,WNW,295,1.7,3.5,73,0.00,CLR,SKC,0.00,WeatherDisplay:10.37,2013-02-01 05:01:00,
2013-01-31 23:07:00,0.1,-6.5,30.52,NNW,329,2.4,3.5,73,0.00,CLR,SKC,0.00,WeatherDisplay:10.37,2013-02-01 05:07:00,
2013-01-31 23:11:00,0.1,-6.5,30.53,WNW,286,0.9,2.3,73,0.00,CLR,SKC,0.00,WeatherDisplay:10.37,2013-02-01 05:11:00,
2013-01-31 23:17:00,0.0,-6.6,30.53,WNW,294,1.0,1.1,73,0.00,CLR,SKC,0.00,WeatherDisplay:10.37,2013-02-01 05:17:00,
2013-01-31 23:22:00,-0.1,-6.4,30.53,NW,314,1.3,3.5,74,0.00,CLR,SKC,0.00,WeatherDisplay:10.37,2013-02-01 05:22:00,
2013-01-31 23:27:00,-0.1,-6.4,30.54,West,278,1.4,4.0,74,0.00,CLR,SKC,0.00,WeatherDisplay:10.37,2013-02-01 05:27:00,
2013-01-31 23:32:00,-0.1,-6.4,30.54,West,277,1.4,2.3,74,0.00,CLR,SKC,0.00,WeatherDisplay:10.37,2013-02-01 05:32:00,
2013-01-31 23:37:00,-0.1,-6.4,30.54,West,281,1.8,2.3,74,0.00,CLR,SKC,0.00,WeatherDisplay:10.37,2013-02-01 05:37:00,
2013-01-31 23:42:00,-0.1,-6.1,30.54,WNW,283,0.8,1.1,75,0.00,CLR,SKC,0.00,WeatherDisplay:10.37,2013-02-01 05:42:00,
2013-01-31 23:47:00,0.0,-6.0,30.54,WNW,301,0.1,1.1,75,0.00,CLR,SKC,0.00,WeatherDisplay:10.37,2013-02-01 05:47:00,
2013-01-31 23:52:00,0.0,-5.8,30.54,West,263,0.5,2.3,76,0.00,CLR,SKC,0.00,WeatherDisplay:10.37,2013-02-01 05:52:00,
2013-01-31 23:57:00,-0.1,-5.9,30.53,West,278,0.0,1.1,76,0.00,CLR,SKC,0.00,WeatherDisplay:10.37,2013-02-01 05:57:00,